TimePST,TemperatureF,Dew PointF,Humidity,Sea Level PressureIn,VisibilityMPH,Wind Direction,Wind SpeedMPH,Gust SpeedMPH,PrecipitationIn,Events,Conditions,WindDirDegrees,DateUTC
12:54 AM,52.0,45.0,77,29.95,10.0,South,3.5,-,N/A,,Partly Cloudy,190,2011-11-20 08:54:00
1:54 AM,52.0,45.0,77,29.94,10.0,SSE,4.6,-,N/A,,Partly Cloudy,160,2011-11-20 09:54:00
2:54 AM,51.1,46.0,83,29.94,10.0,South,6.9,-,N/A,,Mostly Cloudy,180,2011-11-20 10:54:00
3:20 AM,-9999,-9999,N/A,-9999,-9999.0,North,-9999.0,-,N/A,,Unknown,0,2011-11-20 11:20:00
3:54 AM,55.0,46.0,72,29.92,10.0,SE,9.2,-,N/A,,Overcast,130,2011-11-20 11:54:00
4:54 AM,52.0,46.9,83,29.91,10.0,ENE,6.9,-,N/A,,Overcast,70,2011-11-20 12:54:00
5:54 AM,54.0,46.9,77,29.92,7.0,East,8.1,-,N/A,,Overcast,100,2011-11-20 13:54:00
6:44 AM,55.4,46.4,72,29.92,4.0,ESE,15.0,20.7,0.00,Rain,Light Rain,120,2011-11-20 14:44:00
6:54 AM,54.0,48.9,83,29.93,4.0,ESE,16.1,-,0.00,Rain,Light Rain,120,2011-11-20 14:54:00
7:25 AM,53.6,48.2,82,29.93,2.0,ESE,16.1,-,N/A,Rain,Light Rain,120,2011-11-20 15:25:00
7:54 AM,53.1,50.0,89,29.94,2.0,ESE,17.3,24.2,0.05,Rain,Light Rain,120,2011-11-20 15:54:00
8:15 AM,-9999,-9999,N/A,-9999,-9999.0,North,-9999.0,-,N/A,,Unknown,0,2011-11-20 16:15:00
8:28 AM,53.6,51.8,94,29.93,6.0,ESE,19.6,26.5,0.00,,Overcast,120,2011-11-20 16:28:00
8:44 AM,53.6,50.0,88,29.93,6.0,ESE,20.7,26.5,0.00,Rain,Light Rain,120,2011-11-20 16:44:00
8:54 AM,54.0,50.0,86,29.95,4.0,SE,19.6,31.1,0.03,Rain,Light Rain,130,2011-11-20 16:54:00
9:02 AM,53.6,51.8,94,29.95,2.0,SE,20.7,26.5,N/A,Rain,Light Rain,130,2011-11-20 17:02:00
9:31 AM,53.6,51.8,94,29.96,1.2,SE,15.0,-,N/A,Rain,Rain,140,2011-11-20 17:31:00
9:54 AM,54.0,53.1,97,29.96,1.5,SE,24.2,29.9,0.31,Rain,Light Rain,140,2011-11-20 17:54:00
10:00 AM,-9999,-9999,N/A,-9999,-9999.0,North,-9999.0,-,N/A,,Unknown,0,2011-11-20 18:00:00
10:05 AM,55.4,53.6,94,29.95,1.5,South,21.9,29.9,N/A,,Overcast,170,2011-11-20 18:05:00
10:16 AM,51.8,50.0,94,29.97,1.5,WNW,10.4,19.6,N/A,Rain,Heavy Rain,290,2011-11-20 18:16:00
10:54 AM,50.0,50.0,100,29.97,1.5,East,4.6,-,0.23,Rain,Light Rain,90,2011-11-20 18:54:00
11:36 AM,50.0,48.2,94,29.95,3.0,ENE,9.2,-,N/A,Rain,Light Rain,60,2011-11-20 19:36:00
11:54 AM,50.0,48.9,96,29.94,2.5,ENE,8.1,-,0.07,Rain,Light Rain,70,2011-11-20 19:54:00
12:54 PM,51.1,50.0,96,29.93,3.0,ENE,6.9,-,0.05,Rain,Light Rain,60,2011-11-20 20:54:00
1:54 PM,52.0,51.1,97,29.91,7.0,NNE,4.6,-,0.07,Rain,Light Rain,30,2011-11-20 21:54:00
2:54 PM,51.1,51.1,100,29.90,7.0,Variable,3.5,-,0.03,,Overcast,0,2011-11-20 22:54:00
3:54 PM,51.1,51.1,100,29.92,7.0,NNE,3.5,-,0.02,,Overcast,30,2011-11-20 23:54:00
4:22 PM,51.8,51.8,100,29.92,2.0,Calm,Calm,-,N/A,Rain,Rain,0,2011-11-21 00:22:00
4:25 PM,51.8,51.8,100,29.92,7.0,Calm,Calm,-,N/A,Rain,Rain,0,2011-11-21 00:25:00
4:35 PM,51.8,51.8,100,29.92,7.0,Calm,Calm,-,N/A,Rain,Light Rain,0,2011-11-21 00:35:00
4:54 PM,51.1,51.1,100,29.93,7.0,Calm,Calm,-,0.09,,Overcast,0,2011-11-21 00:54:00
5:27 PM,51.8,51.8,100,29.93,10.0,NE,3.5,-,N/A,,Overcast,50,2011-11-21 01:27:00
5:54 PM,51.1,51.1,100,29.94,5.0,ENE,4.6,-,0.02,Rain,Light Rain,60,2011-11-21 01:54:00
6:12 PM,51.8,51.8,100,29.94,8.0,Calm,Calm,-,N/A,Rain,Light Rain,0,2011-11-21 02:12:00
6:46 PM,51.8,51.8,100,29.95,10.0,Calm,Calm,-,N/A,,Overcast,0,2011-11-21 02:46:00
6:54 PM,51.1,50.0,96,29.96,7.0,NNE,4.6,-,0.01,,Overcast,20,2011-11-21 02:54:00
7:54 PM,50.0,48.9,96,29.97,10.0,NE,4.6,-,N/A,,Scattered Clouds,40,2011-11-21 03:54:00
8:54 PM,48.9,48.9,100,29.99,7.0,NNE,4.6,-,N/A,,Clear,20,2011-11-21 04:54:00
9:54 PM,48.9,48.0,97,30.01,7.0,North,4.6,-,N/A,,Partly Cloudy,10,2011-11-21 05:54:00
10:54 PM,46.9,46.0,97,30.02,7.0,NNE,4.6,-,N/A,,Clear,20,2011-11-21 06:54:00
11:13 PM,46.4,46.4,100,30.02,8.0,NNE,3.5,-,N/A,,Mostly Cloudy,20,2011-11-21 07:13:00
11:35 PM,46.4,46.4,100,30.01,7.0,NNE,4.6,-,N/A,,Mostly Cloudy,20,2011-11-21 07:35:00
11:54 PM,46.9,46.0,97,30.02,7.0,North,5.8,-,N/A,,Partly Cloudy,10,2011-11-21 07:54:00